STARLINK-31476 (59523 NORAD) Tracking and Keplerian Element Data

This shows tracking and keplerian element data for the satellite.

Feedback or suggestion? Click here.




ElementValue
Catalog59523
NameSTARLINK-31476
Epoch Orbit792
Epoch Day159.69180373
Epoch Year2024
RAAN4.6384
Inclination42.9998
Eccentricity0.0001466
Argument of Perigee308.9456
Mean Anonmoly51.127
Mean Motion15.40699151
Decay Rate1.171E-05
L11 59523U 24073N 24159.69180373 .00001171 00000+0 35282-4 0 9991
L22 59523 42.9998 4.6384 0001466 308.9456 51.1270 15.40699151 7929



Live tracking and technical data element details for STARLINK-31476 (NORAD 59523). STARLINK-31476 can be tracked NOW for your location showing map with azimuth and elevation plus other details from your city location.







IsCatalogInMostPopularTable: catalog: 59523, numindb: 13
Update: records affected: 1



GetName: 59523 STARLINK-31476

Hit Count: updated at: Fri, 14 Jun 2024 19:08:44 GMT